Wind_Speed
16 17 17 17 18 18 18 17 17 17 17 18 18 18 19 19 18 18 18 18 19 20 19 19 19 19 18 19 19 19 20 20 21 21 20 20 21 21
18 19 19 19 19 19 19 19 18 18 19 19 19 19 20 20 20 19 19 19 19 19 19 19 19 19 19 20 19 19 20 20 20 20 21 21 21 22
20 20 20 20 20 20 20 19 20 20 20 20 20 20 20 21 21 21 20 20 20 19 19 19 19 19 19 19 19 19 20 19 20 20 21 22 21 21
22 22 21 21 21 21 20 20 21 21 21 21 21 21 21 21 21 21 21 21 20 20 19 19 20 20 20 20 20 20 19 20 19 19 20 22 23 23
23 22 22 22 22 22 22 22 22 22 22 22 22 22 22 22 22 22 22 22 21 21 20 21 21 21 21 21 21 21 21 20 20 20 21 22 23 24
22 23 22 22 23 23 23 23 23 23 23 23 23 23 23 23 23 23 23 22 21 21 21 21 21 21 21 21 21 21 22 21 21 21 21 21 22 25
22 23 23 23 24 24 24 23 23 23 23 23 23 23 23 23 23 23 23 23 22 22 21 21 22 21 21 21 21 21 22 22 22 21 22 22 23 24
22 23 24 24 24 24 24 24 24 23 23 23 23 22 22 22 23 23 23 23 24 23 22 22 22 22 22 22 21 21 22 22 22 22 22 22 22 23
23 23 24 25 25 25 25 25 25 24 24 23 22 22 22 23 23 23 23 23 23 23 23 23 22 22 22 22 22 22 21 21 22 22 23 22 22 23
25 25 25 25 25 26 26 26 25 25 24 23 23 23 23 23 22 22 22 22 22 23 23 23 23 23 23 22 22 22 22 21 21 22 22 23 23 23
26 26 26 26 26 26 26 26 26 25 24 24 24 23 23 23 22 22 22 22 23 23 23 23 23 23 22 23 23 22 23 23 23 23 23 24 25 25
27 27 26 26 26 26 27 26 25 25 25 25 24 24 24 23 22 22 22 22 22 23 23 24 23 23 23 23 23 24 24 25 24 24 24 24 24 24
28 28 27 27 27 27 27 26 26 26 26 26 25 25 24 24 24 23 23 23 22 22 23 23 23 24 23 23 23 24 24 24 25 25 25 25 25 25
28 28 28 28 28 28 27 27 27 27 26 26 26 25 25 25 25 24 24 24 23 23 23 23 24 24 24 24 24 24 25 25 25 25 24 24 25 25
28 29 29 28 28 28 28 28 28 27 26 26 26 26 26 26 25 25 25 25 24 24 23 24 24 25 25 25 25 25 25 25 25 25 25 24 24 25
29 29 29 28 27 27 28 28 28 28 27 27 27 27 27 27 27 26 26 26 26 25 25 24 24 25 25 26 25 25 25 26 26 26 26 25 25 25
29 29 29 28 28 28 29 29 29 29 29 28 28 28 28 28 27 27 27 27 26 26 26 26 26 26 26 26 26 25 25 25 26 26 26 26 27 27
28 28 29 29 29 29 30 30 30 30 29 28 28 28 28 28 28 28 28 27 27 27 27 27 27 26 26 26 26 26 25 25 25 26 26 27 27 27
29 29 29 29 29 29 30 30 30 31 30 29 28 28 28 28 28 28 27 27 27 27 27 27 27 27 27 27 26 26 26 26 26 26 27 28 28 27
30 29 30 30 30 30 30 30 29 29 29 29 28 29 28 28 28 28 28 28 27 27 27 27 27 27 27 27 27 27 27 27 27 28 28 28 28 28
30 30 30 30 29 29 29 29 29 28 28 27 27 27 27 27 27 27 26 26 26 26 26 26 27 26 26 27 27 27 28 28 29 29 30 29 29 28
29 30 29 29 29 29 28 28 28 27 26 26 26 26 26 26 26 25 25 25 24 24 25 25 26 26 26 27 27 27 28 29 29 29 30 29 29 28
28 28 29 29 29 28 26 25 25 25 25 25 25 25 25 25 25 25 25 24 24 24 24 25 26 26 26 28 29 29 28 28 28 29 29 29 29 29
Wind_Direction
301 302 300 297 295 295 294 295 294 292 292 292 291 292 292 292 290 289 289 289 288 288 286 287 285 283 283 282 277 270 266 262 260 255 251 249 248 247
298 300 301 298 296 296 296 294 294 293 292 291 290 291 290 290 290 289 288 289 288 288 287 287 286 285 283 282 279 275 271 266 263 257 251 248 249 247
297 297 299 300 299 298 296 295 294 292 291 289 289 289 289 289 288 287 287 286 286 286 287 286 285 283 281 282 282 280 277 272 266 260 254 250 248 246
295 296 296 296 297 297 295 294 293 291 290 289 288 289 289 289 288 288 287 285 284 284 284 285 283 283 282 279 280 280 279 274 271 265 259 253 250 249
291 292 293 293 295 297 297 295 294 291 289 288 288 288 289 289 288 287 287 285 283 282 283 283 283 283 282 280 278 278 277 276 273 267 261 258 254 251
289 290 290 291 293 295 297 297 296 292 290 288 287 287 288 289 287 287 286 285 283 281 281 281 281 282 282 281 279 278 276 275 273 269 266 262 259 255
288 289 290 292 293 294 295 296 297 294 291 289 288 288 288 288 288 287 284 283 283 282 281 282 280 280 281 280 279 279 277 274 271 269 266 263 262 260
288 289 290 291 292 294 295 294 295 293 292 290 289 289 288 288 288 287 285 284 284 282 282 282 281 279 280 280 279 279 278 277 274 270 266 265 265 263
287 288 290 291 292 293 294 294 294 292 290 291 291 289 287 286 287 287 285 283 283 283 282 281 281 280 280 279 279 279 277 276 275 271 267 265 264 263
288 287 289 291 292 293 292 292 292 291 289 289 289 289 288 286 286 288 286 285 283 283 283 281 280 280 278 277 277 277 278 277 276 273 270 267 265 264
289 287 288 290 291 292 292 291 291 290 289 288 288 287 288 287 286 286 287 287 286 285 284 282 280 279 277 276 275 275 276 278 276 273 271 269 266 265
289 289 289 289 290 291 291 290 290 289 288 287 285 284 286 286 286 286 287 287 287 286 284 283 282 280 277 277 276 275 275 276 276 274 272 270 268 267
287 289 288 288 290 290 290 290 289 287 286 285 284 284 284 286 287 286 285 286 286 285 285 283 282 280 279 278 278 278 277 275 274 274 274 271 269 268
286 287 287 288 290 290 290 289 288 287 286 285 284 284 283 285 287 287 285 285 285 283 282 282 280 279 280 279 278 279 279 277 275 273 273 273 271 269
284 285 287 289 290 289 288 288 287 287 287 286 283 282 282 283 285 285 285 284 284 282 282 281 280 280 280 279 278 279 279 277 275 273 272 272 272 271
283 284 286 287 287 288 289 288 288 288 288 288 285 283 283 283 283 283 284 285 284 282 282 282 282 282 281 280 279 280 278 276 274 274 273 270 270 270
284 284 285 286 288 289 288 287 287 287 288 288 287 285 284 282 282 282 283 284 283 281 281 281 282 282 280 280 280 279 278 276 275 274 273 270 269 271
284 284 284 285 287 287 287 286 286 285 285 285 286 286 284 282 282 282 283 283 283 281 280 280 280 280 280 280 281 279 277 276 275 274 274 271 271 272
287 287 287 286 286 287 287 286 284 284 283 283 285 285 284 283 283 283 283 283 282 281 280 280 280 279 280 281 281 280 277 276 275 275 275 273 272 273
286 286 286 286 285 285 286 286 286 285 283 283 283 283 283 283 283 283 283 283 282 280 279 280 280 280 281 280 279 280 277 276 276 276 275 274 272 272
285 286 287 288 288 287 286 287 287 285 283 282 282 283 283 284 284 284 284 283 283 282 282 281 280 280 280 280 281 281 280 278 277 277 276 274 273 272
286 287 289 289 290 290 288 287 286 284 283 282 282 283 285 285 285 285 285 284 283 283 281 280 281 280 280 282 284 283 281 279 277 277 277 277 276 274
288 289 290 289 290 291 289 288 286 285 285 285 283 283 285 286 285 285 285 284 283 282 281 280 281 281 282 282 283 282 281 280 279 280 279 277 276 274
Height
5855 5853 5851 5850 5848 5846 5845 5843 5843 5841 5840 5838 5837 5836 5834 5833 5832 5830 5829 5828 5827 5825 5824 5823 5821 5820 5819 5818 5818 5817 5817 5817 5818 5818 5819 5820 5822 5823
5850 5849 5847 5845 5843 5842 5840 5839 5837 5836 5834 5833 5832 5831 5829 5828 5826 5825 5823 5822 5821 5820 5818 5817 5816 5815 5814 5813 5812 5811 5811 5811 5811 5812 5812 5814 5816 5818
5845 5844 5842 5840 5838 5837 5835 5833 5832 5830 5829 5828 5826 5825 5824 5822 5821 5819 5818 5816 5815 5814 5813 5812 5811 5810 5809 5808 5807 5806 5805 5805 5805 5806 5807 5808 5810 5812
5840 5838 5837 5835 5833 5831 5830 5828 5826 5825 5823 5822 5820 5819 5818 5816 5815 5814 5812 5811 5810 5808 5807 5806 5805 5804 5803 5802 5801 5801 5800 5799 5800 5800 5801 5802 5804 5805
5834 5832 5831 5829 5828 5826 5824 5822 5820 5818 5817 5815 5814 5813 5812 5810 5809 5807 5806 5805 5804 5802 5801 5800 5799 5798 5797 5796 5796 5795 5795 5794 5794 5795 5795 5796 5797 5799
5828 5826 5825 5823 5822 5820 5818 5815 5813 5812 5810 5809 5807 5806 5805 5804 5803 5801 5800 5798 5797 5796 5795 5794 5793 5792 5791 5791 5790 5789 5789 5789 5789 5789 5789 5790 5791 5792
5821 5820 5819 5817 5815 5813 5811 5809 5807 5805 5804 5802 5801 5800 5798 5797 5796 5794 5793 5792 5790 5790 5788 5788 5787 5786 5785 5784 5784 5783 5783 5782 5782 5782 5782 5783 5784 5785
5815 5813 5812 5810 5809 5807 5805 5803 5801 5799 5797 5796 5794 5793 5792 5790 5789 5787 5786 5785 5784 5783 5782 5781 5780 5779 5779 5778 5778 5777 5776 5776 5776 5776 5776 5777 5777 5778
5808 5806 5805 5803 5802 5800 5798 5796 5794 5792 5791 5789 5788 5786 5785 5784 5782 5780 5779 5778 5777 5776 5775 5774 5773 5772 5772 5771 5771 5770 5770 5770 5769 5769 5769 5770 5770 5771
5801 5799 5798 5796 5794 5792 5791 5789 5787 5785 5783 5782 5781 5779 5778 5776 5775 5774 5772 5771 5770 5769 5768 5767 5766 5766 5765 5765 5764 5764 5763 5763 5763 5762 5762 5762 5762 5763
5794 5792 5790 5789 5787 5785 5783 5781 5779 5778 5776 5774 5773 5772 5770 5769 5768 5767 5765 5764 5763 5762 5762 5761 5760 5759 5758 5758 5757 5757 5757 5756 5756 5756 5755 5755 5755 5755
5787 5785 5783 5781 5779 5777 5775 5773 5772 5770 5769 5767 5766 5764 5763 5762 5761 5760 5759 5757 5756 5756 5754 5753 5753 5752 5752 5751 5750 5750 5749 5749 5748 5748 5748 5748 5747 5748
5779 5777 5775 5773 5771 5770 5768 5766 5764 5763 5761 5760 5758 5757 5756 5754 5753 5752 5752 5751 5750 5748 5747 5746 5745 5745 5744 5744 5743 5743 5742 5742 5741 5741 5740 5740 5740 5740
5771 5769 5767 5766 5764 5762 5760 5758 5756 5755 5753 5752 5751 5749 5748 5747 5746 5745 5744 5743 5742 5741 5740 5739 5738 5737 5737 5736 5736 5735 5734 5734 5733 5733 5732 5732 5732 5732
5763 5761 5759 5757 5755 5754 5752 5750 5748 5746 5745 5744 5743 5742 5741 5739 5738 5737 5736 5735 5734 5732 5732 5731 5730 5729 5729 5729 5728 5727 5726 5726 5725 5725 5724 5724 5724 5724
5754 5752 5751 5749 5747 5746 5744 5742 5740 5739 5737 5736 5734 5733 5732 5731 5730 5729 5728 5727 5725 5724 5723 5723 5722 5721 5721 5720 5719 5719 5718 5717 5717 5716 5716 5716 5716 5715
5745 5744 5742 5741 5739 5737 5736 5734 5732 5730 5729 5728 5726 5725 5724 5723 5721 5720 5719 5718 5717 5716 5715 5714 5713 5713 5712 5711 5711 5710 5709 5709 5708 5708 5707 5707 5707 5706
5736 5735 5734 5732 5730 5729 5727 5725 5724 5722 5720 5719 5717 5716 5715 5714 5713 5711 5710 5709 5708 5707 5706 5705 5705 5704 5703 5703 5702 5701 5701 5700 5700 5699 5698 5698 5698 5697
5728 5727 5725 5724 5722 5720 5718 5716 5714 5712 5711 5710 5708 5707 5706 5705 5703 5702 5701 5700 5699 5698 5697 5696 5695 5695 5695 5695 5694 5693 5692 5692 5691 5690 5689 5689 5689 5688
5719 5718 5716 5714 5712 5710 5709 5707 5705 5703 5702 5701 5699 5698 5697 5695 5694 5693 5692 5691 5690 5688 5688 5687 5686 5686 5686 5686 5685 5684 5683 5682 5682 5681 5680 5679 5679 5679
5710 5709 5707 5705 5703 5701 5700 5698 5696 5694 5693 5691 5690 5688 5687 5686 5685 5684 5683 5681 5680 5680 5679 5678 5677 5677 5676 5676 5675 5675 5674 5673 5672 5671 5671 5670 5670 5669
5701 5700 5698 5696 5694 5692 5690 5689 5687 5685 5683 5682 5681 5680 5679 5677 5676 5675 5674 5673 5672 5671 5670 5669 5669 5668 5667 5667 5666 5665 5664 5663 5662 5661 5660 5660 5659 5659
5692 5691 5689 5687 5685 5683 5681 5680 5678 5676 5675 5674 5673 5672 5670 5669 5668 5667 5666 5664 5663 5663 5662 5661 5660 5659 5658 5658 5657 5656 5654 5653 5652 5652 5651 5650 5649 5649